| time (UTC) | temp C | wind direction | speed KPH | gust KPH | rain 1hr cm | rain 24hr cm | rain mn cm | humidity % | barometer mb |
| 20260503223636 | 15 | 279 | 1.6 | 3.2 | 0.00 | 0.00 | 0.00 | 57 | 1010.4 |
| 20260503223132 | 15 | 284 | 3.2 | 3.2 | 0.00 | 0.00 | 0.00 | 57 | 1010.2 |
| 20260503222629 | 15 | 272 | 1.6 | 3.2 | 0.00 | 0.00 | 0.00 | 56 | 1010.5 |
| 20260503222127 | 15 | 277 | 9.7 | 11.3 | 0.00 | 0.00 | 0.00 | 56 | 1010.7 |
| 20260503221625 | 15 | 323 | 8.0 | 11.3 | 0.00 | 0.00 | 0.00 | 56 | 1010.7 |
| 20260503221122 | 15 | 221 | 6.4 | 9.7 | 0.00 | 0.00 | 0.00 | 55 | 1010.9 |
| 20260503220619 | 15 | 217 | 3.2 | 9.7 | 0.00 | 0.00 | 0.00 | 56 | 1010.5 |
| 20260503220116 | 16 | 21 | 6.4 | 9.7 | 0.00 | 0.00 | 0.00 | 55 | 1010.8 |
| 20260503215613 | 16 | 294 | 9.7 | 14.5 | 0.00 | 0.00 | 0.00 | 55 | 1010.9 |
| 20260503215109 | 16 | 242 | 9.7 | 12.9 | 0.00 | 0.00 | 0.00 | 54 | 1010.9 |
| 20260503214608 | 16 | 226 | 6.4 | 9.7 | 0.00 | 0.00 | 0.00 | 53 | 1010.9 |
| 20260503214104 | 16 | 170 | 4.8 | 9.7 | 0.00 | 0.00 | 0.00 | 54 | 1011.0 |
| 20260503213603 | 16 | 345 | 8.0 | 11.3 | 0.00 | 0.00 | 0.00 | 54 | 1011.2 |
| 20260503213059 | 16 | 201 | 8.0 | 11.3 | 0.00 | 0.00 | 0.00 | 54 | 1011.2 |
| 20260503212556 | 16 | 235 | 6.4 | 9.7 | 0.00 | 0.00 | 0.00 | 54 | 1011.0 |
| 20260503212054 | 16 | 219 | 4.8 | 8.0 | 0.00 | 0.00 | 0.00 | 54 | 1011.0 |
| 20260503211551 | 16 | 323 | 4.8 | 8.0 | 0.00 | 0.00 | 0.00 | 54 | 1011.2 |
| 20260503211046 | 16 | 279 | 6.4 | 8.0 | 0.00 | 0.00 | 0.00 | 53 | 1011.5 |
| 20260503210543 | 17 | 159 | 4.8 | 8.0 | 0.00 | 0.00 | 0.00 | 53 | 1011.4 |
| 20260503210039 | 16 | 250 | 6.4 | 11.3 | 0.00 | 0.00 | 0.00 | 53 | 1011.8 |
| 20260503205536 | 16 | 265 | 6.4 | 9.7 | 0.00 | 0.00 | 0.00 | 53 | 1011.6 |
| 20260503205032 | 16 | 188 | 4.8 | 8.0 | 0.00 | 0.00 | 0.00 | 54 | 1012.0 |
| 20260503204529 | 16 | 233 | 8.0 | 11.3 | 0.00 | 0.00 | 0.00 | 53 | 1011.9 |
| 20260503204026 | 16 | 220 | 3.2 | 8.0 | 0.00 | 0.00 | 0.00 | 53 | 1012.2 |
| 20260503203523 | 16 | 319 | 8.0 | 11.3 | 0.00 | 0.00 | 0.00 | 53 | 1012.1 |
| 20260503203020 | 16 | 309 | 4.8 | 9.7 | 0.00 | 0.00 | 0.00 | 53 | 1012.2 |
| 20260503202518 | 16 | 226 | 1.6 | 1.6 | 0.00 | 0.00 | 0.00 | 53 | 1012.5 |
| 20260503202016 | 17 | 302 | 11.3 | 14.5 | 0.00 | 0.00 | 0.00 | 52 | 1012.7 |
| 20260503201514 | 16 | 239 | 8.0 | 12.9 | 0.00 | 0.00 | 0.00 | 52 | 1012.9 |
| 20260503201011 | 16 | 281 | 8.0 | 12.9 | 0.00 | 0.00 | 0.00 | 53 | 1013.0 |
| 20260503200507 | 16 | 278 | 8.0 | 9.7 | 0.00 | 0.00 | 0.00 | 52 | 1013.3 |
| 20260503200004 | 16 | 339 | 6.4 | 11.3 | 0.00 | 0.00 | 0.00 | 53 | 1013.4 |
| 20260503195501 | 16 | 280 | 3.2 | 3.2 | 0.00 | 0.00 | 0.00 | 52 | 1013.4 |
| 20260503194957 | 17 | 193 | 4.8 | 8.0 | 0.00 | 0.00 | 0.00 | 52 | 1013.5 |
| 20260503194455 | 17 | 282 | 1.6 | 1.6 | 0.00 | 0.00 | 0.00 | 51 | 1013.6 |
| 20260503193949 | 16 | 280 | 3.2 | 3.2 | 0.00 | 0.00 | 0.00 | 53 | 1013.8 |
| 20260503193446 | 16 | 256 | 1.6 | 3.2 | 0.00 | 0.00 | 0.00 | 52 | 1014.1 |
| 20260503192941 | 16 | 273 | 1.6 | 1.6 | 0.00 | 0.00 | 0.00 | 53 | 1014.0 |
| 20260503192438 | 15 | 270 | 6.4 | 11.3 | 0.00 | 0.00 | 0.00 | 53 | 1014.6 |
| 20260503191933 | 15 | 295 | 4.8 | 4.8 | 0.00 | 0.00 | 0.00 | 54 | 1014.7 |
| 20260503191431 | 16 | 301 | 4.8 | 4.8 | 0.00 | 0.00 | 0.00 | 54 | 1014.5 |
| 20260503190927 | 16 | 243 | 4.8 | 12.9 | 0.00 | 0.00 | 0.00 | 54 | 1014.3 |
| 20260503190425 | 16 | 240 | 4.8 | 11.3 | 0.00 | 0.00 | 0.00 | 53 | 1014.0 |
| 20260503185922 | 16 | 307 | 4.8 | 4.8 | 0.00 | 0.00 | 0.00 | 52 | 1013.8 |
| 20260503185418 | 16 | 269 | 3.2 | 4.8 | 0.00 | 0.00 | 0.00 | 50 | 1013.9 |
| 20260503184917 | 16 | 359 | 8.0 | 11.3 | 0.00 | 0.00 | 0.00 | 51 | 1014.1 |
| 20260503184414 | 16 | 211 | 3.2 | 3.2 | 0.00 | 0.00 | 0.00 | 53 | 1014.3 |
| 20260503183911 | 16 | 233 | 6.4 | 9.7 | 0.00 | 0.00 | 0.00 | 53 | 1014.5 |
| 20260503183407 | 16 | 280 | 4.8 | 4.8 | 0.00 | 0.00 | 0.00 | 52 | 1014.3 |
| 20260503182904 | 16 | 248 | 3.2 | 4.8 | 0.00 | 0.00 | 0.00 | 52 | 1014.3 |
| 20260503182403 | 15 | 272 | 1.6 | 1.6 | 0.00 | 0.00 | 0.00 | 53 | 1014.7 |
| 20260503181900 | 15 | 291 | 3.2 | 3.2 | 0.00 | 0.00 | 0.00 | 53 | 1014.8 |
| 20260503181357 | 15 | 298 | 4.8 | 8.0 | 0.00 | 0.00 | 0.00 | 53 | 1015.2 |
| 20260503180853 | 16 | 254 | 6.4 | 9.7 | 0.00 | 0.00 | 0.00 | 52 | 1015.2 |
| 20260503180351 | 16 | 167 | 6.4 | 9.7 | 0.00 | 0.00 | 0.00 | 53 | 1015.2 |
| 20260503175848 | 16 | 284 | 0.0 | 1.6 | 0.00 | 0.00 | 0.00 | 52 | 1015.3 |
| 20260503175346 | 15 | 241 | 3.2 | 4.8 | 0.00 | 0.00 | 0.00 | 53 | 1015.4 |
| 20260503174841 | 16 | 271 | 3.2 | 3.2 | 0.00 | 0.00 | 0.00 | 52 | 1015.6 |
| 20260503174339 | 16 | 298 | 11.3 | 14.5 | 0.00 | 0.00 | 0.00 | 51 | 1015.7 |
| 20260503173834 | 16 | 319 | 4.8 | 8.0 | 0.00 | 0.00 | 0.00 | 52 | 1015.7 |
| 20260503173331 | 16 | 319 | 6.4 | 9.7 | 0.00 | 0.00 | 0.00 | 50 | 1016.1 |
| 20260503172828 | 16 | 294 | 3.2 | 8.0 | 0.00 | 0.00 | 0.00 | 52 | 1016.0 |
| 20260503172326 | 16 | 175 | 4.8 | 4.8 | 0.00 | 0.00 | 0.00 | 53 | 1016.1 |
| 20260503171821 | 15 | 270 | 1.6 | 1.6 | 0.00 | 0.00 | 0.00 | 51 | 1016.2 |
| 20260503171318 | 16 | 223 | 4.8 | 8.0 | 0.00 | 0.00 | 0.00 | 51 | 1016.4 |
| 20260503170815 | 16 | 261 | 3.2 | 3.2 | 0.00 | 0.00 | 0.00 | 52 | 1016.3 |
| 20260503170312 | 15 | 271 | 4.8 | 8.0 | 0.00 | 0.00 | 0.00 | 51 | 1016.3 |
| 20260503150704 | 13 | 284 | 3.2 | 4.8 | 0.00 | 0.00 | 0.00 | 53 | 1017.8 |
| 20260503150201 | 13 | 275 | 6.4 | 9.7 | 0.00 | 0.00 | 0.00 | 51 | 1017.9 |
| 20260503140125 | 11 | 242 | 3.2 | 3.2 | 0.00 | 0.00 | 0.00 | 57 | 1018.4 |
| 20260503131054 | 10 | 270 | 1.6 | 3.2 | 0.00 | 0.00 | 0.00 | 63 | 1018.1 |
| 20260503130551 | 10 | 287 | 1.6 | 1.6 | 0.00 | 0.00 | 0.00 | 63 | 1018.1 |
| 20260503110442 | 3 | 271 | 1.6 | 1.6 | 0.00 | 0.00 | 0.00 | 78 | 1017.7 |
| 20260503090333 | 3 | 259 | 0.0 | 1.6 | 0.00 | 0.00 | 0.00 | 83 | 1017.3 |
| 20260503081300 | 2 | 274 | 0.0 | 1.6 | 0.00 | 0.00 | 0.00 | 85 | 1017.4 |
| 20260503080756 | 2 | 274 | 0.0 | 0.0 | 0.00 | 0.00 | 0.00 | 85 | 1017.3 |
| 20260503080254 | 3 | 277 | 0.0 | 0.0 | 0.00 | 0.00 | 0.00 | 84 | 1017.3 |
| 20260503072730 | 3 | 265 | 0.0 | 0.0 | 0.00 | 0.00 | 0.00 | 85 | 1017.3 |
| 20260503072227 | 3 | 281 | 0.0 | 0.0 | 0.00 | 0.00 | 0.00 | 86 | 1017.3 |
| 20260503071723 | 2 | 276 | 0.0 | 0.0 | 0.00 | 0.00 | 0.00 | 87 | 1017.2 |
| 20260503071221 | 2 | 276 | 0.0 | 0.0 | 0.00 | 0.00 | 0.00 | 87 | 1017.4 |
| 20260503070717 | 2 | 278 | 0.0 | 0.0 | 0.00 | 0.00 | 0.00 | 88 | 1017.3 |
| 20260503070215 | 2 | 277 | 0.0 | 0.0 | 0.00 | 0.00 | 0.00 | 88 | 1017.3 |
| 20260503060140 | 2 | 276 | 0.0 | 0.0 | 0.00 | 0.00 | 0.00 | 93 | 1017.8 |
| 20260503054627 | 2 | 276 | 0.0 | 0.0 | 0.00 | 0.00 | 0.00 | 93 | 1017.8 |
| 20260503054124 | 2 | 278 | 0.0 | 0.0 | 0.00 | 0.00 | 0.00 | 93 | 1017.7 |
| 20260503053622 | 2 | 278 | 0.0 | 0.0 | 0.00 | 0.00 | 0.00 | 93 | 1017.8 |
| 20260503053120 | 2 | 278 | 0.0 | 0.0 | 0.00 | 0.00 | 0.00 | 93 | 1017.7 |
| 20260503052616 | 2 | 278 | 0.0 | 0.0 | 0.00 | 0.00 | 0.00 | 93 | 1017.8 |
| 20260503052113 | 2 | 278 | 0.0 | 0.0 | 0.00 | 0.00 | 0.00 | 93 | 1018.0 |
| 20260503051608 | 2 | 278 | 0.0 | 0.0 | 0.00 | 0.00 | 0.00 | 94 | 1017.8 |
| 20260503051106 | 2 | 281 | 0.0 | 0.0 | 0.00 | 0.00 | 0.00 | 94 | 1018.1 |
| 20260503050602 | 2 | 281 | 0.0 | 0.0 | 0.00 | 0.00 | 0.00 | 94 | 1017.8 |
| 20260503050059 | 2 | 279 | 0.0 | 0.0 | 0.00 | 0.00 | 0.00 | 94 | 1018.2 |
| 20260503045556 | 2 | 278 | 0.0 | 0.0 | 0.00 | 0.00 | 0.00 | 94 | 1018.0 |
| 20260503045053 | 2 | 281 | 0.0 | 0.0 | 0.00 | 0.00 | 0.00 | 94 | 1018.1 |
| 20260503044550 | 2 | 281 | 0.0 | 0.0 | 0.00 | 0.00 | 0.00 | 94 | 1018.0 |
| 20260503044048 | 2 | 281 | 0.0 | 0.0 | 0.00 | 0.00 | 0.00 | 94 | 1017.9 |
| 20260503043544 | 2 | 278 | 0.0 | 0.0 | 0.00 | 0.00 | 0.00 | 93 | 1017.9 |
| 20260503043040 | 2 | 277 | 0.0 | 0.0 | 0.00 | 0.00 | 0.00 | 93 | 1017.9 |
| 20260503042537 | 2 | 280 | 0.0 | 0.0 | 0.00 | 0.00 | 0.00 | 93 | 1018.0 |
| 20260503042033 | 2 | 280 | 0.0 | 0.0 | 0.00 | 0.00 | 0.00 | 92 | 1017.8 |
| 20260503041530 | 2 | 280 | 0.0 | 0.0 | 0.00 | 0.00 | 0.00 | 92 | 1018.0 |
| 20260503041028 | 2 | 277 | 0.0 | 0.0 | 0.00 | 0.00 | 0.00 | 92 | 1017.9 |
| 20260503040525 | 3 | 282 | 0.0 | 0.0 | 0.00 | 0.00 | 0.00 | 92 | 1018.0 |
| 20260503040023 | 3 | 282 | 0.0 | 0.0 | 0.00 | 0.00 | 0.00 | 91 | 1017.7 |
| 20260503035520 | 3 | 282 | 0.0 | 0.0 | 0.00 | 0.00 | 0.00 | 91 | 1017.9 |
| 20260503035017 | 3 | 280 | 0.0 | 0.0 | 0.00 | 0.00 | 0.00 | 91 | 1018.0 |
| 20260503034514 | 3 | 279 | 0.0 | 0.0 | 0.00 | 0.00 | 0.00 | 90 | 1018.2 |
| 20260503034011 | 3 | 285 | 0.0 | 0.0 | 0.00 | 0.00 | 0.00 | 90 | 1018.2 |
| 20260503033508 | 3 | 285 | 0.0 | 0.0 | 0.00 | 0.00 | 0.00 | 90 | 1018.1 |
| 20260503033006 | 3 | 285 | 0.0 | 0.0 | 0.00 | 0.00 | 0.00 | 89 | 1018.1 |
| 20260503032504 | 3 | 285 | 0.0 | 0.0 | 0.00 | 0.00 | 0.00 | 89 | 1017.9 |
| 20260503032002 | 3 | 285 | 0.0 | 0.0 | 0.00 | 0.00 | 0.00 | 88 | 1018.1 |
| 20260503031500 | 3 | 285 | 0.0 | 0.0 | 0.00 | 0.00 | 0.00 | 88 | 1018.0 |
| 20260503030956 | 3 | 285 | 0.0 | 0.0 | 0.00 | 0.00 | 0.00 | 87 | 1018.0 |
| 20260503030452 | 3 | 285 | 0.0 | 0.0 | 0.00 | 0.00 | 0.00 | 87 | 1018.0 |
| 20260503025949 | 3 | 285 | 0.0 | 0.0 | 0.00 | 0.00 | 0.00 | 87 | 1018.0 |
| 20260503025446 | 3 | 285 | 0.0 | 0.0 | 0.00 | 0.00 | 0.00 | 86 | 1018.1 |
| 20260503024944 | 3 | 285 | 0.0 | 0.0 | 0.00 | 0.00 | 0.00 | 85 | 1018.0 |
| 20260503024440 | 4 | 285 | 0.0 | 0.0 | 0.00 | 0.00 | 0.00 | 84 | 1017.7 |
| 20260503023937 | 4 | 285 | 0.0 | 0.0 | 0.00 | 0.00 | 0.00 | 83 | 1018.0 |
| 20260503023434 | 4 | 285 | 0.0 | 0.0 | 0.00 | 0.00 | 0.00 | 83 | 1018.0 |
| 20260503022931 | 4 | 285 | 0.0 | 0.0 | 0.00 | 0.00 | 0.00 | 82 | 1017.9 |
| 20260503022426 | 5 | 285 | 0.0 | 0.0 | 0.00 | 0.00 | 0.00 | 81 | 1017.9 |
| 20260503021922 | 5 | 285 | 0.0 | 0.0 | 0.00 | 0.00 | 0.00 | 80 | 1017.9 |
| 20260503021418 | 5 | 285 | 0.0 | 0.0 | 0.00 | 0.00 | 0.00 | 79 | 1017.9 |
| 20260503020916 | 5 | 285 | 0.0 | 0.0 | 0.00 | 0.00 | 0.00 | 77 | 1017.5 |
| 20260503020414 | 5 | 285 | 0.0 | 0.0 | 0.00 | 0.00 | 0.00 | 77 | 1017.7 |
| 20260503015910 | 5 | 285 | 0.0 | 0.0 | 0.00 | 0.00 | 0.00 | 76 | 1017.9 |
| 20260503015407 | 5 | 285 | 0.0 | 0.0 | 0.00 | 0.00 | 0.00 | 74 | 1017.6 |
| 20260503014903 | 5 | 285 | 0.0 | 0.0 | 0.00 | 0.00 | 0.00 | 74 | 1017.6 |
| 20260503014400 | 5 | 286 | 0.0 | 0.0 | 0.00 | 0.00 | 0.00 | 72 | 1017.5 |
| 20260503013858 | 5 | 285 | 0.0 | 0.0 | 0.00 | 0.00 | 0.00 | 70 | 1017.6 |
| 20260503013355 | 6 | 285 | 0.0 | 0.0 | 0.00 | 0.00 | 0.00 | 69 | 1017.5 |
| 20260503012852 | 6 | 285 | 0.0 | 0.0 | 0.00 | 0.00 | 0.00 | 67 | 1017.6 |
| 20260503012349 | 6 | 286 | 0.0 | 0.0 | 0.00 | 0.00 | 0.00 | 67 | 1017.4 |
| 20260503011846 | 6 | 286 | 0.0 | 0.0 | 0.00 | 0.00 | 0.00 | 65 | 1017.5 |
| 20260503011342 | 6 | 286 | 0.0 | 0.0 | 0.00 | 0.00 | 0.00 | 66 | 1017.5 |
| 20260503010839 | 6 | 286 | 0.0 | 0.0 | 0.00 | 0.00 | 0.00 | 65 | 1017.2 |
| 20260503010331 | 7 | 286 | 0.0 | 0.0 | 0.00 | 0.00 | 0.00 | 67 | 1017.5 |
| 20260503005827 | 7 | 286 | 0.0 | 0.0 | 0.00 | 0.00 | 0.00 | 64 | 1017.5 |
| 20260503005325 | 7 | 286 | 0.0 | 0.0 | 0.00 | 0.00 | 0.00 | 63 | 1017.3 |
| 20260503004821 | 7 | 286 | 0.0 | 0.0 | 0.00 | 0.00 | 0.00 | 61 | 1017.1 |
| 20260503004319 | 7 | 286 | 0.0 | 0.0 | 0.00 | 0.00 | 0.00 | 59 | 1017.4 |
| 20260503003816 | 8 | 286 | 0.0 | 0.0 | 0.00 | 0.00 | 0.00 | 59 | 1017.4 |
| 20260503003313 | 8 | 286 | 0.0 | 0.0 | 0.00 | 0.00 | 0.00 | 58 | 1017.4 |
| 20260503002810 | 8 | 286 | 0.0 | 0.0 | 0.00 | 0.00 | 0.00 | 58 | 1017.1 |
| 20260503002307 | 8 | 286 | 0.0 | 0.0 | 0.00 | 0.00 | 0.00 | 56 | 1017.2 |
| 20260503001803 | 8 | 286 | 0.0 | 0.0 | 0.00 | 0.00 | 0.00 | 56 | 1017.4 |
| 20260503001300 | 9 | 286 | 0.0 | 1.6 | 0.00 | 0.00 | 0.00 | 57 | 1017.5 |
| 20260503000757 | 9 | 286 | 0.0 | 0.0 | 0.00 | 0.00 | 0.00 | 55 | 1017.2 |
| 20260503000254 | 9 | 286 | 0.0 | 0.0 | 0.00 | 0.00 | 0.00 | 53 | 1017.1 |
| 20260502235751 | 9 | 286 | 0.0 | 0.0 | 0.00 | 0.00 | 0.00 | 53 | 1017.2 |
| 20260502235249 | 10 | 286 | 0.0 | 0.0 | 0.00 | 0.00 | 0.00 | 53 | 1017.1 |
| 20260502234745 | 10 | 286 | 0.0 | 0.0 | 0.00 | 0.00 | 0.00 | 52 | 1017.1 |
| 20260502234243 | 10 | 281 | 1.6 | 1.6 | 0.00 | 0.00 | 0.00 | 51 | 1017.2 |
| 20260502233738 | 10 | 286 | 1.6 | 1.6 | 0.00 | 0.00 | 0.00 | 51 | 1017.2 |
| 20260502233235 | 10 | 286 | 0.0 | 0.0 | 0.00 | 0.00 | 0.00 | 51 | 1017.0 |
| 20260502232731 | 10 | 277 | 1.6 | 1.6 | 0.00 | 0.00 | 0.00 | 48 | 1017.1 |
| 20260502232228 | 10 | 291 | 1.6 | 1.6 | 0.00 | 0.00 | 0.00 | 47 | 1017.2 |
| 20260502231725 | 10 | 286 | 1.6 | 3.2 | 0.00 | 0.00 | 0.00 | 48 | 1017.2 |
| 20260502231223 | 10 | 294 | 1.6 | 1.6 | 0.00 | 0.00 | 0.00 | 46 | 1017.0 |
| 20260502230722 | 11 | 281 | 1.6 | 1.6 | 0.00 | 0.00 | 0.00 | 46 | 1017.2 |
| 20260502230219 | 11 | 297 | 1.6 | 1.6 | 0.00 | 0.00 | 0.00 | 46 | 1017.0 |
| 20260502225715 | 12 | 319 | 4.8 | 4.8 | 0.00 | 0.00 | 0.00 | 43 | 1017.0 |
| 20260502225213 | 11 | 285 | 6.4 | 8.0 | 0.00 | 0.00 | 0.00 | 44 | 1017.2 |
| 20260502224708 | 12 | 300 | 1.6 | 1.6 | 0.00 | 0.00 | 0.00 | 45 | 1017.2 |
| 20260502224205 | 12 | 282 | 3.2 | 3.2 | 0.00 | 0.00 | 0.00 | 45 | 1017.1 |